SUNNYSIDE Weather Reports


time (UTC)temp
F
wind
direction
speed
knots
gust
knots
rain 1hr
in
rain 24hr
in
rain mn
in
humidity
%
barometer
mb
20260503214010 68 243 16.5 29.5 0.00 0.00 0.00 29 965.8
20260503213509 67 360 14.8 30.4 0.00 0.00 0.00 28 965.6
20260503213011 68 271 14.8 30.4 0.00 0.00 0.00 27 965.7
20260503212515 69 269 18.2 29.5 0.00 0.00 0.00 23 966.0
20260503212008 70 257 13.9 27.8 0.00 0.00 0.00 22 966.0
20260503211508 71 261 13.0 21.7 0.00 0.00 0.00 19 966.0
20260503211008 71 242 12.2 21.7 0.00 0.00 0.00 19 965.7
20260503210508 71 223 14.8 20.0 0.00 0.00 0.00 20 965.5
20260503210008 72 241 13.9 26.9 0.00 0.00 0.00 18 965.7
20260503205506 72 222 15.6 22.6 0.00 0.00 0.00 19 965.7
20260503205006 72 237 16.5 22.6 0.00 0.00 0.00 19 966.0
20260503204505 71 246 15.6 20.9 0.00 0.00 0.00 18 966.0
20260503204003 70 221 12.2 18.2 0.00 0.00 0.00 19 966.2
20260503203503 70 228 13.0 20.9 0.00 0.00 0.00 21 966.4
20260503203002 70 236 12.2 20.9 0.00 0.00 0.00 21 966.4
20260503202502 70 246 11.3 18.2 0.00 0.00 0.00 19 966.5
20260503202002 70 248 10.4 22.6 0.00 0.00 0.00 20 966.5
20260503201602 70 247 12.2 22.6 0.00 0.00 0.00 20 966.5
20260503201103 70 251 15.6 21.7 0.00 0.00 0.00 19 966.7
20260503200559 70 233 9.6 18.2 0.00 0.00 0.00 18 966.7
20260503200058 70 222 11.3 24.3 0.00 0.00 0.00 19 966.9
20260503195557 70 238 18.2 24.3 0.00 0.00 0.00 19 967.3
20260503195056 70 238 13.9 20.9 0.00 0.00 0.00 19 967.5
20260503194601 70 220 12.2 20.9 0.00 0.00 0.00 20 967.6
20260503194054 71 360 13.0 26.1 0.00 0.00 0.00 19 967.8
20260503193554 71 234 14.8 26.1 0.00 0.00 0.00 20 968.1
20260503193053 71 233 15.6 21.7 0.00 0.00 0.00 19 968.3
20260503192552 71 242 11.3 21.7 0.00 0.00 0.00 20 968.4
20260503192051 70 231 15.6 25.2 0.00 0.00 0.00 20 968.6
20260503191550 70 236 15.6 25.2 0.00 0.00 0.00 21 968.8
20260503191049 70 246 13.9 23.5 0.00 0.00 0.00 20 968.9
20260503190547 70 238 13.0 22.6 0.00 0.00 0.00 19 969.0
20260503190047 70 360 13.9 23.5 0.00 0.00 0.00 21 969.3
20260503185545 70 217 16.5 24.3 0.00 0.00 0.00 22 969.6
20260503185047 69 255 14.8 21.7 0.00 0.00 0.00 21 969.7
20260503184601 69 249 12.2 21.7 0.00 0.00 0.00 23 970.0
20260503184043 68 230 11.3 19.1 0.00 0.00 0.00 23 970.2
20260503183542 68 244 10.4 20.9 0.00 0.00 0.00 23 970.3
20260503183048 68 215 13.9 20.0 0.00 0.00 0.00 23 970.4
20260503182541 68 245 11.3 19.1 0.00 0.00 0.00 24 970.5
20260503182040 69 203 10.4 22.6 0.00 0.00 0.00 24 970.7
20260503181540 68 237 11.3 22.6 0.00 0.00 0.00 23 970.8
20260503181038 69 250 17.4 22.6 0.00 0.00 0.00 23 971.1
20260503180536 68 225 13.0 20.0 0.00 0.00 0.00 25 971.2
20260503180037 68 257 11.3 21.7 0.00 0.00 0.00 23 971.4
20260503175534 68 215 14.8 20.9 0.00 0.00 0.00 25 971.5
20260503175037 68 240 11.3 20.0 0.00 0.00 0.00 26 971.5
20260503174534 67 276 13.0 20.0 0.00 0.00 0.00 25 971.7
20260503174034 67 232 9.6 19.1 0.00 0.00 0.00 24 971.8
20260503173534 67 233 11.3 20.0 0.00 0.00 0.00 25 972.1
20260503173035 68 230 11.3 20.0 0.00 0.00 0.00 26 972.3
20260503172532 68 229 12.2 20.0 0.00 0.00 0.00 26 972.2
20260503172029 67 243 7.0 17.4 0.00 0.00 0.00 27 972.3
20260503171531 67 221 11.3 17.4 0.00 0.00 0.00 25 972.5
20260503171026 67 213 8.7 14.8 0.00 0.00 0.00 25 972.7
20260503170525 66 222 9.6 17.4 0.00 0.00 0.00 28 972.8
20260503150552 57 268 8.7 13.9 0.00 0.00 0.00 38 976.3
20260503131025 46 360 5.2 9.6 0.00 0.00 0.00 48 978.3
20260503130522 46 232 4.3 8.7 0.00 0.00 0.00 49 978.2
20260503110503 35 229 3.5 5.2 0.00 0.00 0.00 55 979.1
20260503081544 37 228 3.5 6.1 0.00 0.00 0.00 51 980.1
20260503081043 37 234 3.5 6.1 0.00 0.00 0.00 52 980.2
20260503080544 37 232 2.6 4.3 0.00 0.00 0.00 52 980.1
20260503072540 39 264 1.7 4.3 0.00 0.00 0.00 47 980.3
20260503072042 39 360 2.6 4.3 0.00 0.00 0.00 47 980.3
20260503071557 39 265 2.6 4.3 0.00 0.00 0.00 48 980.3
20260503071038 39 360 2.6 4.3 0.00 0.00 0.00 49 980.4
20260503070537 38 360 2.6 4.3 0.00 0.00 0.00 50 980.4
20260503055030 40 269 3.5 6.1 0.00 0.00 0.00 48 980.7
20260503054529 40 281 1.7 4.3 0.00 0.00 0.00 48 980.7
20260503054028 40 273 2.6 4.3 0.00 0.00 0.00 48 980.6
20260503053528 40 285 1.7 3.5 0.00 0.00 0.00 48 980.6
20260503053034 40 276 1.7 3.5 0.00 0.00 0.00 47 980.6
20260503052526 40 282 1.7 4.3 0.00 0.00 0.00 47 980.6
20260503052028 41 285 2.6 5.2 0.00 0.00 0.00 46 980.6
20260503051529 41 299 2.6 6.1 0.00 0.00 0.00 46 980.7
20260503051025 41 284 2.6 7.8 0.00 0.00 0.00 46 980.6
20260503050523 40 286 5.2 7.8 0.00 0.00 0.00 47 980.7
20260503050022 40 281 4.3 7.0 0.00 0.00 0.00 47 980.6
20260503045522 40 277 2.6 7.0 0.00 0.00 0.00 48 980.6
20260503045022 41 280 3.5 7.0 0.00 0.00 0.00 47 980.6
20260503044541 41 303 3.5 5.2 0.00 0.00 0.00 47 980.6
20260503044023 41 292 3.5 6.1 0.00 0.00 0.00 47 980.6
20260503043521 41 286 3.5 7.8 0.00 0.00 0.00 47 980.6
20260503043038 41 306 3.5 7.8 0.00 0.00 0.00 46 980.5
20260503042521 42 289 2.6 7.0 0.00 0.00 0.00 46 980.5
20260503042021 42 296 3.5 7.0 0.00 0.00 0.00 46 980.6
20260503041521 43 360 1.7 3.5 0.00 0.00 0.00 44 980.5
20260503041021 43 327 1.7 7.0 0.00 0.00 0.00 44 980.5
20260503040523 43 360 3.5 7.0 0.00 0.00 0.00 43 980.6
20260503040020 44 360 2.6 5.2 0.00 0.00 0.00 43 980.7
20260503035519 44 331 1.7 7.0 0.00 0.00 0.00 42 980.7
20260503035019 45 360 3.5 9.6 0.00 0.00 0.00 41 980.6
20260503034520 45 339 4.3 9.6 0.00 0.00 0.00 41 980.7
20260503034020 45 306 3.5 7.8 0.00 0.00 0.00 40 980.7
20260503033522 46 360 3.5 7.8 0.00 0.00 0.00 40 980.8
20260503033021 46 331 4.3 7.8 0.00 0.00 0.00 39 980.8
20260503032520 46 360 4.3 7.8 0.00 0.00 0.00 39 980.7
20260503032023 46 344 4.3 8.7 0.00 0.00 0.00 39 980.7
20260503031526 47 360 5.2 8.7 0.00 0.00 0.00 39 980.7
20260503031019 47 360 4.3 9.6 0.00 0.00 0.00 39 980.6
20260503030518 47 360 6.1 10.4 0.00 0.00 0.00 39 980.5
20260503030019 47 308 7.0 11.3 0.00 0.00 0.00 38 980.5
20260503025517 48 360 7.0 11.3 0.00 0.00 0.00 38 980.5
20260503025017 48 304 6.1 10.4 0.00 0.00 0.00 38 980.4
20260503024518 48 360 7.0 13.0 0.00 0.00 0.00 37 980.5
20260503024018 48 360 8.7 13.0 0.00 0.00 0.00 37 980.4
20260503023517 49 360 8.7 13.9 0.00 0.00 0.00 38 980.3
20260503023017 49 340 9.6 13.9 0.00 0.00 0.00 37 980.2
20260503022518 49 360 7.8 14.8 0.00 0.00 0.00 38 980.2
20260503022020 49 360 8.7 14.8 0.00 0.00 0.00 37 980.2
20260503021517 50 360 7.8 13.9 0.00 0.00 0.00 35 980.2
20260503021018 50 308 8.7 13.9 0.00 0.00 0.00 34 980.1
20260503020516 51 360 8.7 13.0 0.00 0.00 0.00 33 980.0
20260503020017 51 332 8.7 14.8 0.00 0.00 0.00 31 979.9
20260503015519 52 360 9.6 14.8 0.00 0.00 0.00 29 979.9
20260503015016 52 360 9.6 16.5 0.00 0.00 0.00 28 979.9
20260503014516 52 341 10.4 16.5 0.00 0.00 0.00 29 979.9
20260503014015 52 328 9.6 14.8 0.00 0.00 0.00 30 979.8
20260503013515 52 360 9.6 15.6 0.00 0.00 0.00 31 979.7
20260503013015 52 360 8.7 15.6 0.00 0.00 0.00 32 979.6
20260503012514 52 360 8.7 15.6 0.00 0.00 0.00 32 979.5
20260503012014 53 360 9.6 18.2 0.00 0.00 0.00 32 979.6
20260503011514 53 338 9.6 14.8 0.00 0.00 0.00 33 979.6
20260503011014 53 331 7.8 13.9 0.00 0.00 0.00 34 979.8
20260503010513 53 360 7.8 14.8 0.00 0.00 0.00 34 979.6
20260503010013 54 304 7.8 15.6 0.00 0.00 0.00 34 979.5
20260503005513 54 335 8.7 17.4 0.00 0.00 0.00 35 979.4
20260503005013 54 341 9.6 17.4 0.00 0.00 0.00 35 979.6
20260503004514 54 360 9.6 17.4 0.00 0.00 0.00 36 979.5
20260503004017 54 344 12.2 17.4 0.00 0.00 0.00 36 979.5
20260503003513 55 360 11.3 16.5 0.00 0.00 0.00 37 979.5
20260503003013 55 300 10.4 16.5 0.00 0.00 0.00 39 979.4
20260503002513 55 338 10.4 15.6 0.00 0.00 0.00 39 979.4
20260503002012 55 355 9.6 19.1 0.00 0.00 0.00 39 979.4
20260503001512 56 331 11.3 19.1 0.00 0.00 0.00 39 979.5
20260503001012 57 15 12.2 18.2 0.00 0.00 0.00 38 979.5
20260503000512 58 349 9.6 16.5 0.00 0.00 0.00 40 979.4
20260503000021 58 360 9.6 16.5 0.00 0.00 0.00 41 979.4
20260502235511 58 331 11.3 19.1 0.00 0.00 0.00 41 979.4
20260502235011 58 346 10.4 20.9 0.00 0.00 0.00 41 979.4
20260502234512 58 360 12.2 20.9 0.00 0.00 0.00 40 979.3
20260502234011 59 303 12.2 19.1 0.00 0.00 0.00 40 979.3
20260502233510 59 5 11.3 19.1 0.00 0.00 0.00 40 979.3
20260502233011 59 349 13.9 20.9 0.00 0.00 0.00 39 979.2
20260502232510 60 290 12.2 20.0 0.00 0.00 0.00 37 979.3
20260502232010 60 355 10.4 16.5 0.00 0.00 0.00 38 979.1
20260502231510 60 360 10.4 16.5 0.00 0.00 0.00 37 979.2
20260502231010 60 344 10.4 15.6 0.00 0.00 0.00 36 979.1
20260502230510 60 360 9.6 15.6 0.00 0.00 0.00 35 979.1
20260502230011 60 5 10.4 16.5 0.00 0.00 0.00 33 979.1
20260502225513 60 335 10.4 16.5 0.00 0.00 0.00 33 979.1
20260502225013 60 360 9.6 15.6 0.00 0.00 0.00 34 979.1
20260502224509 60 298 9.6 14.8 0.00 0.00 0.00 33 979.0
20260502224012 60 340 10.4 14.8 0.00 0.00 0.00 34 979.1
20260502223509 60 342 7.8 15.6 0.00 0.00 0.00 35 979.1
20260502223024 60 348 10.4 17.4 0.00 0.00 0.00 34 979.1
20260502222509 60 347 8.7 13.9 0.00 0.00 0.00 34 978.9
20260502222009 60 347 9.6 15.6 0.00 0.00 0.00 35 979.1
20260502221508 60 331 7.0 15.6 0.00 0.00 0.00 35 978.9
20260502221008 61 336 9.6 14.8 0.00 0.00 0.00 33 979.0
20260502220507 61 348 8.7 13.0 0.00 0.00 0.00 35 978.8
20260502220007 61 360 8.7 13.0 0.00 0.00 0.00 33 978.9
20260502215505 60 5 6.1 13.9 0.00 0.00 0.00 36 978.9
20260502215008 60 343 8.7 13.9 0.00 0.00 0.00 35 978.8
20260502214505 60 346 9.6 13.9 0.00 0.00 0.00 36 979.0